Location: Banios
(43.0451°N, 0.2335°E)
Time: 04:17:24
(UTC+00:00)

Daily predictions for brighter satellites

Satellite Brightness Start Highest point End
(mag) Time Altitude Azimuth Time Altitude Azimuth Time Altitude Azimuth
Cosmos 2297 Rocket 3.5 04:09:44 35° ESE 04:09:44 35° ESE 04:13:08 10° SE
Cosmos 2227 Rocket 3.0 04:20:52 46° ESE 04:20:52 46° ESE 04:25:01 10° SE
Cosmos 2074 Rocket 4.2 04:31:13 31° N 04:34:19 69° E 04:40:30 10° SSE
Cosmos 1656 4.3 04:36:46 46° NNE 04:36:46 46° NNE 04:40:36 10° NNE
Cosmos 2369 4.3 04:39:28 27° S 04:42:27 55° ESE 04:48:03 10° NNE
SL-4 R/B 4.4 04:45:25 16° NE 04:45:25 16° NE 04:46:31 10° ENE
NOSS 2-2 (E) 4.5 04:56:04 38° ENE 04:56:04 38° ENE 04:58:57 10° NE
Cosmos 1626 4.5 05:00:08 16° SSE 05:00:08 16° SSE 05:00:58 10° SSE
COSMO-SKYMED 1 3.0 04:54:49 10° SSE 04:59:05 60° ENE 04:59:35 55° NE
Lacrosse 5 rocket 3.5 05:05:38 19° N 05:05:38 19° N 05:07:34 10° NNE
USA 215 3.1 04:58:15 10° SE 05:04:48 89° SW 05:07:03 45° NW
Cosmos 1980 Rocket 3.2 05:02:51 10° S 05:08:16 46° ESE 05:13:40 10° NE
STARLINK-26 4.4 05:08:45 40° ESE 05:08:45 40° ESE 05:11:42 10° ENE
Meteor 1-24 Rocket 4.1 05:11:55 46° SW 05:11:55 46° SW 05:16:32 10° S
ALOS 2.5 05:08:51 10° NNE 05:13:32 68° ESE 05:18:10 10° S
FENGYUN 3A 3.9 05:09:43 10° NNE 05:15:06 68° ESE 05:20:29 10° S
Cosmos 1697 Rocket 2.5 05:13:30 24° SSW 05:17:03 83° WNW 05:22:42 10° NNE
Cosmos 1953 3.1 05:14:36 10° S 05:18:32 53° E 05:22:30 10° NNE
SKYMED 3 4.4 05:18:32 10° S 05:22:52 75° WSW 05:23:40 57° NW
CENTAUR R/B 4.1 05:16:53 14° NNW 05:23:26 42° NE 05:31:31 10° ESE
Cosmos 2327 Rocket 4.4 05:17:14 10° NNW 05:23:31 72° W 05:29:38 10° S
Cosmos 1726 4.0 05:21:36 10° SSE 05:24:51 30° E 05:28:07 10° NNE
Nadezhda 1 Rocket 3.8 05:19:33 10° SSW 05:25:37 71° W 05:31:42 10° N
ATLAS 2AS CENTAUR R/B 4.0 05:21:53 10° S 05:29:20 47° ESE 05:36:55 10° NE
Abrixas rocket 3.6 05:32:51 26° NNE 05:32:51 26° NNE 05:34:59 10° ENE
ADEOS Rocket 4.0 05:27:24 10° SE 05:32:28 40° ENE 05:37:40 10° N
CZ-3 R/B 3.6 05:23:32 17° WSW 05:35:36 35° SSW 05:41:42 10° SE
Cosmos 773 Rocket 3.9 05:30:44 10° SSW 05:35:59 63° WNW 05:41:15 10° NNE
SJ-12 3.8 05:33:09 10° N 05:37:10 59° WNW 05:41:09 10° SSW
Cosmos 2082 3.8 05:35:56 32° NW 05:38:23 54° WSW 05:43:54 10° S
USA 238 DEB 3.9 05:34:14 18° NNW 05:39:55 80° NE 05:47:22 10° SE
USA 238 3.9 05:34:20 18° NNW 05:40:01 80° NE 05:47:28 10° SE
Cosmos 1602 Rocket 3.7 05:39:57 44° W 05:40:10 45° W 05:44:16 10° SSW
CZ-4B DEB 4.1 05:35:07 10° NNE 05:40:42 81° WNW 05:46:13 10° SSW
Cosmos 2228 3.8 05:36:34 10° S 05:40:50 53° E 05:45:09 10° NNE
BREEZE-M DEB (TANK) 4.1 05:30:49 14° WSW 05:44:23 68° NNW 05:49:07 10° NE
SKYMED 2 3.9 05:43:03 10° SSW 05:47:08 40° W 05:48:09 34° WNW
Meteor 2-17 Rocket 4.3 05:42:31 10° NNW 05:48:36 72° W 05:54:36 10° S
Cosmos 2297 Rocket 3.3 05:51:37 23° WSW 05:51:37 23° WSW 05:55:33 10° SSW
Cosmos 1953 Rocket 4.2 05:47:00 10° N 05:51:25 58° E 05:55:45 10° SSE
Cosmos 2344 3.7 05:46:44 13° WSW 05:53:29 55° NW 06:01:33 10° NNE
Okean O Rocket 1.5 05:49:51 10° NNE 05:54:20 84° WNW 05:58:46 10° SSW
Cosmos 2154 Rocket 4.2 05:49:48 10° NNW 05:55:41 47° W 06:01:33 10° SSW
Cosmos 2322 Rocket 4.3 05:51:05 10° SSE 05:55:51 29° ESE 06:00:39 10° NE
NOSS 2-2 (D) 3.4 05:54:41 33° W 05:55:54 48° NW 05:59:49 10° NNE
Cosmos 1758 Rocket 3.4 05:52:27 10° NNW 05:56:48 71° W 06:01:11 10° S
SJ-7 4.4 05:52:44 10° NNE 05:56:54 85° ESE 06:01:04 10° SSW
NOSS 2 (A) 4.0 05:58:10 52° N 05:58:35 70° NE 06:00:55 10° SE
Cosmos 2360 4.2 05:54:05 10° SW 05:59:43 58° WNW 06:05:23 10° NNE
Cosmos 2227 Rocket 3.4 06:02:45 20° W 06:02:59 20° W 06:06:59 10° SW
USA 32 4.0 05:57:53 10° N 06:03:09 83° W 06:08:24 10° S
Helios 1A Rocket 2.8 05:59:11 10° NNE 06:03:19 86° W 06:07:26 10° SSW
STARLINK-34 4.1 05:59:51 10° SW 06:03:48 58° SE 06:07:46 10° ENE
Cosmos 1328 4.3 05:59:51 10° N 06:03:49 62° E 06:07:45 10° SSE
FALCON 9 DEB 4.0 06:03:00 16° S 06:03:54 23° SE 06:05:27 10° E
STARLINK-24 4.0 06:02:06 10° SW 06:06:04 61° SE 06:10:02 10° ENE
STARLINK-81 4.2 06:02:59 10° SW 06:06:55 56° SE 06:10:52 10° ENE
Cosmos 1538 Rocket 4.3 06:02:36 10° SW 06:07:44 47° WNW 06:12:52 10° N
Cosmos 44 Rocket 3.5 06:05:35 21° NW 06:08:26 46° WSW 06:12:58 10° S
STARLINK-54 3.9 06:04:44 10° SW 06:08:42 64° SE 06:12:42 10° ENE
STARLINK-77 4.1 06:06:15 10° SW 06:10:13 60° SE 06:14:11 10° ENE
Cosmos 2263 Rocket 2.7 06:06:14 10° NNW 06:11:49 60° ENE 06:17:25 10° SE
STARLINK-25 4.0 06:07:55 10° SW 06:11:53 62° SE 06:15:52 10° ENE
STARLINK-71 3.8 06:09:42 10° SW 06:13:42 71° SE 06:17:44 10° ENE
SMAP 3.5 06:09:48 10° NNE 06:14:27 64° ESE 06:19:03 10° S
STARLINK-48 4.1 06:13:03 22° WNW 06:14:57 36° NNW 06:18:36 10° NE
STARLINK-79 3.9 06:11:10 10° SW 06:15:09 67° SE 06:19:10 10° ENE
STARLINK-80 4.5 06:14:05 21° WNW 06:15:39 28° NNW 06:19:00 10° NE
STARLINK-78 3.8 06:12:51 10° SW 06:16:51 69° SE 06:20:51 10° ENE
Cosmos 2058 Rocket 3.2 06:12:57 10° S 06:17:21 77° E 06:21:45 10° N
Cosmos 1959 Rocket 4.5 06:11:53 10° N 06:18:01 89° E 06:24:10 10° S
STARLINK-57 3.7 06:14:34 10° SW 06:18:35 75° SE 06:22:37 10° ENE
Cosmos 2278 4.2 06:13:31 10° SW 06:18:47 38° WNW 06:24:06 10° N
STARLINK-46 2.7 06:18:53 30° WSW 06:19:19 34° SW 06:21:14 10° SSE
STARLINK-49 3.7 06:16:06 10° SW 06:20:07 74° SE 06:24:08 10° ENE
STARLINK-27 3.7 06:17:45 10° SW 06:21:46 76° SE 06:25:47 10° ENE
COSMOS 2455 2.9 06:17:10 10° SW 06:23:05 59° NW 06:29:04 10° NNE
Cosmos 1825 Rocket 3.9 06:19:13 10° NNW 06:23:17 40° W 06:27:20 10° SSW
STARLINK-74 3.7 06:19:24 10° SW 06:23:25 78° SE 06:27:26 10° ENE
SL-4 R/B 1.6 06:21:02 17° NW 06:23:37 75° NNE 06:27:02 10° ESE
STARLINK-39 3.6 06:21:03 10° SW 06:25:04 81° SE 06:29:06 10° NE
Cosmos 2366 rocket 4.0 06:20:15 10° N 06:26:37 83° W 06:32:59 10° S
STARLINK 3.6 06:22:41 10° SW 06:26:43 83° SE 06:30:45 10° NE
STARLINK-69 3.5 06:24:33 10° SW 06:28:34 88° NNW 06:32:37 10° NE
STARLINK-21 3.5 06:26:03 10° SW 06:30:04 88° SE 06:34:06 10° NE
STARLINK-45 3.5 06:27:55 10° WSW 06:31:57 82° NW 06:35:59 10° NE
NOSS 3-2 (C) 4.1 06:24:37 10° NW 06:32:16 83° WSW 06:40:45 10° SSE
NOSS 7 (D) 4.3 06:29:56 14° NW 06:32:30 58° SW 06:35:55 10° SSE
SL-16 R/B 2.6 06:27:09 10° SSW 06:32:46 69° ESE 06:38:24 10° NNE
NOAA 6 4.5 06:27:58 10° N 06:32:46 39° WNW 06:37:33 10° SW
STARLINK-70 3.5 06:29:28 10° SW 06:33:29 83° NW 06:37:32 10° NE
NOSS 2-2 (C) 4.5 06:32:17 13° W 06:34:48 23° NW 06:38:08 10° NNE
STARLINK-76 3.5 06:31:01 10° SW 06:35:02 84° NW 06:39:05 10° NE
COSMO-SKYMED 1 4.3 06:33:39 10° WSW 06:35:37 13° W 06:36:49 12° WNW
STARLINK 3.5 06:32:40 10° WSW 06:36:43 82° NNW 06:40:45 10° NE
YAOGAN 6 3.7 06:34:43 10° NNE 06:38:12 48° E 06:41:36 10° S
H-2A R/B 2.9 06:34:29 10° N 06:38:18 54° WNW 06:42:07 10° SSW
STARLINK-32 3.5 06:34:18 10° WSW 06:38:19 80° NW 06:42:22 10° NE
STARLINK-40 3.5 06:35:58 10° WSW 06:40:00 78° NW 06:44:02 10° NE
CZ-4 R/B 3.7 06:37:14 10° NNE 06:41:00 31° E 06:44:46 10° SSE
Cosmos 1606 Rocket 4.3 06:37:06 10° SW 06:41:02 31° WNW 06:45:00 10° NNW
STARLINK-44 3.5 06:37:36 10° WSW 06:41:37 76° NW 06:45:39 10° NE
Envisat 3.4 06:36:35 10° NNE 06:41:41 70° ESE 06:46:44 10° S
Cosmos 1680 Rocket 3.5 06:36:38 10° SSW 06:41:56 68° WNW 06:47:15 10° NNE
CZ-4B R/B 3.7 06:36:51 10° N 06:41:58 38° WNW 06:46:59 10° SW
STARLINK-37 3.5 06:39:25 10° WSW 06:43:25 70° NW 06:47:26 10° NE
Feng Yun 1-1 Rocket 4.5 06:37:30 10° NNE 06:43:29 89° W 06:49:21 10° SSW
Cosmos 1726 Rocket 4.2 06:39:51 10° SW 06:43:55 35° WNW 06:48:01 10° N
STARLINK-42 3.4 06:40:26 10° WSW 06:44:14 67° NNW 06:48:04 10° NE
Lacrosse 5 rocket 3.7 06:42:13 10° NNW 06:44:33 14° N 06:46:50 10° NNE
STARLINK-33 3.3 06:40:58 10° WSW 06:44:35 62° NNW 06:48:14 10° NE
STARLINK-64 3.4 06:41:06 10° WSW 06:44:55 68° NNW 06:48:45 10° NE
NOSS 3-4 (A) 3.4 06:39:00 10° SW 06:44:58 83° NW 06:51:19 10° NE
STARLINK-36 3.5 06:40:58 10° WSW 06:44:58 72° NW 06:49:00 10° NE
NOSS 3-4 (C) 3.4 06:39:06 10° SW 06:45:04 84° NW 06:51:25 10° NE
STARLINK-26 4.1 06:42:28 10° W 06:45:40 32° NNW 06:48:53 10° NE
Cosmos 2360 Rocket 4.0 06:40:50 10° S 06:46:00 37° ESE 06:51:11 10° NE
Meteor 1-11 4.2 06:40:47 10° NNW 06:46:21 69° W 06:51:55 10° S
Cosmos 1371 Rocket 4.2 06:41:16 10° NNW 06:46:35 80° ENE 06:51:54 10° SSE
STARLINK-68 3.6 06:42:50 10° WSW 06:46:50 64° NNW 06:50:50 10° NE
EXPRESS MD2 3.9 06:45:22 10° WNW 06:47:29 19° NNW 06:49:13 10° NE
ATLAS 3B R/B 2.9 06:41:23 10° NNW 06:48:08 73° NE 06:55:03 10° SE
USA 215 4.4 06:43:13 10° S 06:48:20 24° SW 06:53:30 10° WNW
STARLINK-63 3.5 06:44:24 10° WSW 06:48:23 65° NNW 06:52:24 10° NE
STARLINK-66 3.4 06:45:50 10° WSW 06:49:26 56° NNW 06:53:03 10° NE
STARLINK-35 3.5 06:45:57 10° WSW 06:49:57 66° NNW 06:53:58 10° NE
ALOS 3.8 06:47:53 10° NNW 06:50:23 14° WNW 06:52:52 10° W
Cosmos 1908 3.7 06:47:02 10° SSW 06:50:43 39° WNW 06:54:25 10° N
STARLINK-51 3.6 06:47:35 10° WSW 06:51:35 64° NNW 06:55:35 10° NE
Cosmos 2181 Rocket 4.4 06:46:02 10° SW 06:51:46 40° WNW 06:57:39 10° N
Cosmos 1980 Rocket 3.0 06:47:34 10° WSW 06:52:28 29° NW 06:57:22 10° N
AQUARIUS 4.3 06:48:23 10° N 06:52:47 55° WNW 06:57:10 10° SSW
STARLINK-30 3.6 06:49:16 10° WSW 06:53:15 62° NNW 06:57:16 10° NE
Cosmos 1300 3.2 06:49:32 10° S 06:53:18 67° E 06:57:06 10° NNE
Cosmos 1703 4.0 06:50:53 10° NNW 06:54:27 32° W 06:57:58 10° SSW
STARLINK-55 3.5 06:51:19 10° WSW 06:54:52 50° NNW 06:58:26 10° NE
STARLINK-72 3.6 06:50:56 10° WSW 06:54:54 60° NNW 06:58:54 10° NE
